Regional Weather Roundup
Issued by NWS Burlington, VT

Home | Current Version | Previous Version | Text Only | Print | Product List | Glossary On
Versions: 1 2 3 4 5 6 7 8 9 10 11 12 13 14 15 16 17 18 19 20 21 22 23 24 25 26 27 28 29 30 31 32 33 34 35 36 37 38 39 40 41 42 43 44 45 46 47 48 49 50
000
ASUS41 KBTV 021030
RWRBTV
VERMONT REGIONAL WEATHER ROUNDUP
NATIONAL WEATHER SERVICE BURLINGTON VT
600 AM EDT TUE SEP 02 2014

NOTE: "FAIR" INDICATES FEW OR NO CLOUDS BELOW 12,000 FEET WITH NO
SIGNIFICANT WEATHER AND/OR OBSTRUCTIONS TO VISIBILITY.

* THESE REPORTS ARE NOT UNDER NWS QUALITY CONTROL AND/OR DO NOT
  REPORT WEATHER SUCH AS PRECIPITATION AND FOG.

VTZ001>019-021100-
_____VERMONT_____


CITY           SKY/WX    TMP DP  RH WIND       PRES   REMARKS
BURLINGTON     PTSUNNY   74  67  78 S9        29.82S
MONTPELIER     FOG       59  59 100 CALM      29.92S VSB 3/4
MORRISVILLE    PTSUNNY   59  58  96 CALM      29.88S FOG
ST. JOHNSBURY*   N/A     59  58  96 MISG      29.88R
MIDDLEBURY*    FAIR      73  69  87 S5        29.86S
RUTLAND*       PTSUNNY   66  64  94 SE7       29.89R
SPRINGFIELD    FOG       61  61 100 CALM      29.91S VSB 3/4
HIGHGATE*      PTSUNNY   71  67  85 S6        29.81S
NEWPORT*       FAIR      65  62  91 SE5       29.88S
BENNINGTON     PTSUNNY   66  65  96 CALM      29.89S FOG
GALLUP MILLS*    N/A      0 N/A N/A MISG        N/A
UNION VILLAGE*   N/A     61 N/A N/A MISG        N/A
MT. MANSFIELD*   N/A     63 N/A N/A W13G25      N/A

_____LAKE CHAMPLAIN_____


CITY           SKY/WX    TMP DP  RH WIND       PRES   REMARKS
BURTON ISLAND*   N/A     72  68  88 SE6         N/A
COLCHESTER RF*   N/A     70  68  94 S17         N/A
DIAMOND ISL*     N/A     70  66  88 SW8         N/A

$$

NYZ007-026>031-035-052-083-021100-
_____NORTHERN NEW YORK_____


CITY           SKY/WX    TMP DP  RH WIND       PRES   REMARKS
PLATTSBURGH    MOSUNNY   63  62  97 W5        29.81S
SARANAC LAKE   FOG       60  60 100 CALM      29.88R VSB 1/2
MASSENA        MOSUNNY   71  68  90 S6        29.78S
OGDENSBURG*    SUNNY     72  70  94 SW7       29.78R
POTSDAM*       MOSUNNY   73  70  88 S8        29.79S
PARISHVILLE*     N/A     70 N/A N/A S9          N/A
WATERTOWN      PTSUNNY   74  65  73 SW10      29.82R
FT DRUM        MOSUNNY   73  65  75 SW13G22   29.81R
ALBANY         MOSUNNY   73  70  90 S7        29.87R
GLENS FALLS    CLOUDY    65  62  90 CALM      29.88R

$$
NHZ002-005-011-021100-
_____NEW HAMPSHIRE_____


CITY           SKY/WX    TMP DP  RH WIND       PRES   REMARKS
LEBANON        CLOUDY    64  61  90 NE3       29.89S FOG
KEENE          CLOUDY    64  57  77 CALM      29.91S
PLYMOUTH       FOG       60  60 100 CALM      29.91R VSB 1/4
WHITEFIELD     SUNNY     56  53  90 CALM      29.90S

$$

_____REGIONAL QUEBEC LOCATIONS_____


CITY           SKY/WX    TMP DP  RH WIND       PRES   REMARKS
MONTREAL       PTSUNNY   68  64  88 VRB2      29.78R
QUEBEC CITY    CLOUDY    61  59  94 NE7       29.82F FOG
SHERBROOKE     MOSUNNY   59  57  94 CALM      29.85S

_____REGIONAL ONTARIO LOCATIONS_____


CITY           SKY/WX    TMP DP  RH WIND       PRES   REMARKS
OTTAWA         PTSUNNY   72  68  88 S8        29.76R

______KEY______
VSB  - VISIBILITY IN MILES
WCI  - WIND CHILL INDEX
HX   - HEAT INDEX
$$
NNNN


USA.gov is the U.S. government's official web portal to all federal, state and local government web resources and services.